Year,Month,Day,Hour,Minute,Value (Times are PST for barometer in hPa)
2013,09,28,00,00,1006.13
2013,09,28,00,01,1006.13
2013,09,28,00,02,1006.13
2013,09,28,00,03,1006.13
2013,09,28,00,04,1006.10
2013,09,28,00,05,1006.06
2013,09,28,00,06,1006.06
2013,09,28,00,07,1006.06
2013,09,28,00,08,1006.03
2013,09,28,00,09,1006.03
2013,09,28,00,10,1006.03
2013,09,28,00,11,1005.99
2013,09,28,00,12,1006.03
2013,09,28,00,13,1005.99
2013,09,28,00,14,1005.99
2013,09,28,00,15,1005.96
2013,09,28,00,16,1005.89
2013,09,28,00,17,1005.89
2013,09,28,00,18,1005.86
2013,09,28,00,19,1005.86
2013,09,28,00,20,1005.83
2013,09,28,00,21,1005.83
2013,09,28,00,22,1005.86
2013,09,28,00,23,1005.83
2013,09,28,00,24,1005.83
2013,09,28,00,25,1005.79
2013,09,28,00,26,1005.83
2013,09,28,00,27,1005.89
2013,09,28,00,28,1005.93
2013,09,28,00,29,1005.93
2013,09,28,00,30,1005.86
2013,09,28,00,31,1005.89
2013,09,28,00,32,1005.79
2013,09,28,00,33,1005.72
2013,09,28,00,34,1005.72
2013,09,28,00,35,1005.69
2013,09,28,00,36,1005.69
2013,09,28,00,37,1005.62
2013,09,28,00,38,1005.59
2013,09,28,00,39,1005.62
2013,09,28,00,40,1005.59
2013,09,28,00,41,1005.66
2013,09,28,00,42,1005.66
2013,09,28,00,43,1005.69
2013,09,28,00,44,1005.62
2013,09,28,00,45,1005.66
2013,09,28,00,46,1005.66
2013,09,28,00,47,1005.62
2013,09,28,00,48,1005.59
2013,09,28,00,49,1005.59
2013,09,28,00,50,1005.62
2013,09,28,00,51,1005.59
2013,09,28,00,52,1005.59
2013,09,28,00,53,1005.52
2013,09,28,00,54,1005.52
2013,09,28,00,55,1005.49
2013,09,28,00,56,1005.42
2013,09,28,00,57,1005.42
2013,09,28,00,58,1005.39
2013,09,28,00,59,1005.42
2013,09,28,01,00,1005.39
2013,09,28,01,01,1005.42
2013,09,28,01,02,1005.42
2013,09,28,01,03,1005.39
2013,09,28,01,04,1005.35
2013,09,28,01,05,1005.32
2013,09,28,01,06,1005.28
2013,09,28,01,07,1005.25
2013,09,28,01,08,1005.22
2013,09,28,01,09,1005.18
2013,09,28,01,10,1005.17
2013,09,28,01,11,1005.08
2013,09,28,01,12,1005.08
2013,09,28,01,13,1005.05
2013,09,28,01,14,1005.08
2013,09,28,01,15,1005.08
2013,09,28,01,16,1005.01
2013,09,28,01,17,1005.01
2013,09,28,01,18,1004.98
2013,09,28,01,19,1004.95
2013,09,28,01,20,1004.95
2013,09,28,01,21,1004.88
2013,09,28,01,22,1004.88
2013,09,28,01,23,1004.81
2013,09,28,01,24,1004.71
2013,09,28,01,25,1004.78
2013,09,28,01,26,1004.81
2013,09,28,01,27,1004.74
2013,09,28,01,28,1004.71
2013,09,28,01,29,1004.67
2013,09,28,01,30,1004.67
2013,09,28,01,31,1004.67
2013,09,28,01,32,1004.67
2013,09,28,01,33,1004.64
2013,09,28,01,34,1004.57
2013,09,28,01,35,1004.57
2013,09,28,01,36,1004.54
2013,09,28,01,37,1004.61
2013,09,28,01,38,1004.54
2013,09,28,01,39,1004.50
2013,09,28,01,40,1004.44
2013,09,28,01,41,1004.44
2013,09,28,01,42,1004.44
2013,09,28,01,43,1004.40
2013,09,28,01,44,1004.40
2013,09,28,01,45,1004.44
2013,09,28,01,46,1004.40
2013,09,28,01,47,1004.37
2013,09,28,01,48,1004.37
2013,09,28,01,49,1004.37
2013,09,28,01,50,1004.34
2013,09,28,01,51,1004.30
2013,09,28,01,52,1004.30
2013,09,28,01,53,1004.34
2013,09,28,01,54,1004.30
2013,09,28,01,55,1004.27
2013,09,28,01,56,1004.27
2013,09,28,01,57,1004.20
2013,09,28,01,58,1004.17
2013,09,28,01,59,1004.17
2013,09,28,02,00,1004.17
2013,09,28,02,01,1004.10
2013,09,28,02,02,1004.13
2013,09,28,02,03,1004.13
2013,09,28,02,04,1004.13
2013,09,28,02,05,1004.13
2013,09,28,02,06,1004.06
2013,09,28,02,07,1004.06
2013,09,28,02,08,1004.00
2013,09,28,02,09,1004.05
2013,09,28,02,10,1003.96
2013,09,28,02,11,1004.03
2013,09,28,02,12,1004.03
2013,09,28,02,13,1003.96
2013,09,28,02,14,1003.96
2013,09,28,02,15,1003.90
2013,09,28,02,16,1003.90
2013,09,28,02,17,1003.86
2013,09,28,02,18,1003.89
2013,09,28,02,19,1003.79
2013,09,28,02,20,1003.79
2013,09,28,02,21,1003.76
2013,09,28,02,22,1003.76
2013,09,28,02,23,1003.73
2013,09,28,02,24,1003.76
2013,09,28,02,25,1003.69
2013,09,28,02,26,1003.73
2013,09,28,02,27,1003.73
2013,09,28,02,28,1003.76
2013,09,28,02,29,1003.69
2013,09,28,02,30,1003.66
2013,09,28,02,31,1003.56
2013,09,28,02,32,1003.56
2013,09,28,02,33,1003.56
2013,09,28,02,34,1003.52
2013,09,28,02,35,1003.56
2013,09,28,02,36,1003.52
2013,09,28,02,37,1003.49
2013,09,28,02,38,1003.46
2013,09,28,02,39,1003.52
2013,09,28,02,40,1003.46
2013,09,28,02,41,1003.42
2013,09,28,02,42,1003.39
2013,09,28,02,43,1003.39
2013,09,28,02,44,1003.35
2013,09,28,02,45,1003.35
2013,09,28,02,46,1003.29
2013,09,28,02,47,1003.29
2013,09,28,02,48,1003.25
2013,09,28,02,49,1003.25
2013,09,28,02,50,1003.29
2013,09,28,02,51,1003.24
2013,09,28,02,52,1003.12
2013,09,28,02,53,1003.15
2013,09,28,02,54,1003.08
2013,09,28,02,55,1003.08
2013,09,28,02,56,1003.05
2013,09,28,02,57,1003.01
2013,09,28,02,58,1003.01
2013,09,28,02,59,1003.05
2013,09,28,03,00,1002.98
2013,09,28,03,01,1003.01
2013,09,28,03,02,1003.01
2013,09,28,03,03,1002.95
2013,09,28,03,06,1002.81
2013,09,28,03,07,1002.81
2013,09,28,03,08,1002.78
2013,09,28,03,09,1002.81
2013,09,28,03,10,1002.85
2013,09,28,03,11,1002.85
2013,09,28,03,12,1002.84
2013,09,28,03,13,1002.78
2013,09,28,03,14,1002.74
2013,09,28,03,15,1002.71
2013,09,28,03,16,1002.70
2013,09,28,03,17,1002.54
2013,09,28,03,18,1002.55
2013,09,28,03,19,1002.60
2013,09,28,03,20,1002.54
2013,09,28,03,21,1002.57
2013,09,28,03,22,1002.61
2013,09,28,03,23,1002.61
2013,09,28,03,24,1002.64
2013,09,28,03,25,1002.61
2013,09,28,03,26,1002.64
2013,09,28,03,27,1002.64
2013,09,28,03,28,1002.61
2013,09,28,03,29,1002.56
2013,09,28,03,30,1002.51
2013,09,28,03,31,1002.50
2013,09,28,03,32,1002.41
2013,09,28,03,33,1002.40
2013,09,28,03,34,1002.30
2013,09,28,03,35,1002.28
2013,09,28,03,36,1002.34
2013,09,28,03,37,1002.27
2013,09,28,03,38,1002.20
2013,09,28,03,39,1002.16
2013,09,28,03,40,1002.10
2013,09,28,03,41,1002.07
2013,09,28,03,42,1002.10
2013,09,28,03,43,1002.03
2013,09,28,03,44,1001.97
2013,09,28,03,45,1002.00
2013,09,28,03,46,1002.00
2013,09,28,03,47,1001.99
2013,09,28,03,48,1001.94
2013,09,28,03,49,1002.02
2013,09,28,03,50,1001.93
2013,09,28,03,51,1001.90
2013,09,28,03,52,1001.93
2013,09,28,03,53,1001.90
2013,09,28,03,54,1001.93
2013,09,28,03,55,1001.93
2013,09,28,03,56,1001.90
2013,09,28,03,57,1001.90
2013,09,28,03,58,1001.90
2013,09,28,03,59,1001.86
2013,09,28,04,00,1001.84
2013,09,28,04,01,1001.90
2013,09,28,04,02,1001.86
2013,09,28,04,03,1001.90
2013,09,28,04,04,1001.90
2013,09,28,04,05,1001.86
2013,09,28,04,06,1001.86
2013,09,28,04,07,1001.82
2013,09,28,04,08,1001.74
2013,09,28,04,09,1001.79
2013,09,28,04,10,1001.73
2013,09,28,04,11,1001.69
2013,09,28,04,12,1001.69
2013,09,28,04,13,1001.69
2013,09,28,04,14,1001.66
2013,09,28,04,15,1001.66
2013,09,28,04,16,1001.63
2013,09,28,04,17,1001.56
2013,09,28,04,18,1001.63
2013,09,28,04,19,1001.59
2013,09,28,04,20,1001.62
2013,09,28,04,21,1001.52
2013,09,28,04,22,1001.52
2013,09,28,04,23,1001.56
2013,09,28,04,24,1001.52
2013,09,28,04,25,1001.51
2013,09,28,04,26,1001.46
2013,09,28,04,27,1001.48
2013,09,28,04,28,1001.38
2013,09,28,04,29,1001.32
2013,09,28,04,30,1001.28
2013,09,28,04,31,1001.21
2013,09,28,04,32,1001.12
2013,09,28,04,33,1001.08
2013,09,28,04,34,1001.07
2013,09,28,04,35,1001.01
2013,09,28,04,36,1000.91
2013,09,28,04,37,1000.84
2013,09,28,04,38,1000.78
2013,09,28,04,39,1000.81
2013,09,28,04,40,1000.81
2013,09,28,04,41,1000.81
2013,09,28,04,42,1000.81
2013,09,28,04,43,1000.78
2013,09,28,04,44,1000.81
2013,09,28,04,45,1000.78
2013,09,28,04,46,1000.75
2013,09,28,04,47,1000.75
2013,09,28,04,48,1000.71
2013,09,28,04,49,1000.75
2013,09,28,04,50,1000.71
2013,09,28,04,51,1000.68
2013,09,28,04,52,1000.67
2013,09,28,04,53,1000.58
2013,09,28,04,54,1000.57
2013,09,28,04,55,1000.47
2013,09,28,04,56,1000.40
2013,09,28,04,57,1000.34
2013,09,28,04,58,1000.31
2013,09,28,04,59,1000.27
2013,09,28,05,00,1000.27
2013,09,28,05,01,1000.24
2013,09,28,05,02,1000.24
2013,09,28,05,03,1000.24
2013,09,28,05,04,1000.19
2013,09,28,05,05,1000.15
2013,09,28,05,06,1000.20
2013,09,28,05,07,1000.14
2013,09,28,05,08,1000.16
2013,09,28,05,09,1000.11
2013,09,28,05,10,1000.17
2013,09,28,05,11,1000.14
2013,09,28,05,12,1000.07
2013,09,28,05,13,1000.03
2013,09,28,05,14,1000.03
2013,09,28,05,15,1000.01
2013,09,28,05,16,1000.07
2013,09,28,05,17,1000.03
2013,09,28,05,18,999.97
2013,09,28,05,19,999.96
2013,09,28,05,20,999.86
2013,09,28,05,21,999.79
2013,09,28,05,22,999.70
2013,09,28,05,23,999.70
2013,09,28,05,24,999.66
2013,09,28,05,25,999.56
2013,09,28,05,26,999.56
2013,09,28,05,27,999.53
2013,09,28,05,28,999.49
2013,09,28,05,29,999.46
2013,09,28,05,30,999.43
2013,09,28,05,31,999.38
2013,09,28,05,32,999.32
2013,09,28,05,33,999.32
2013,09,28,05,34,999.32
2013,09,28,05,35,999.29
2013,09,28,05,36,999.29
2013,09,28,05,37,999.29
2013,09,28,05,38,999.28
2013,09,28,05,39,999.22
2013,09,28,05,40,999.22
2013,09,28,05,41,999.19
2013,09,28,05,42,999.19
2013,09,28,05,43,999.19
2013,09,28,05,44,999.15
2013,09,28,05,45,999.12
2013,09,28,05,46,999.09
2013,09,28,05,47,999.12
2013,09,28,05,48,999.14
2013,09,28,05,49,999.09
2013,09,28,05,50,999.11
2013,09,28,05,51,999.02
2013,09,28,05,52,998.98
2013,09,28,05,53,998.92
2013,09,28,05,54,998.88
2013,09,28,05,55,998.85
2013,09,28,05,56,998.85
2013,09,28,05,57,998.78
2013,09,28,05,58,998.82
2013,09,28,05,59,998.80
2013,09,28,06,00,998.65
2013,09,28,06,01,998.65
2013,09,28,06,02,998.65
2013,09,28,06,03,998.58
2013,09,28,06,04,998.58
2013,09,28,06,05,998.54
2013,09,28,06,06,998.54
2013,09,28,06,07,998.54
2013,09,28,06,08,998.51
2013,09,28,06,09,998.51
2013,09,28,06,10,998.51
2013,09,28,06,11,998.48
2013,09,28,06,12,998.48
2013,09,28,06,13,998.43
2013,09,28,06,14,998.37
2013,09,28,06,15,998.28
2013,09,28,06,16,998.34
2013,09,28,06,17,998.34
2013,09,28,06,18,998.30
2013,09,28,06,19,998.21
2013,09,28,06,20,998.15
2013,09,28,06,21,998.21
2013,09,28,06,22,998.23
2013,09,28,06,23,998.18
2013,09,28,06,24,998.27
2013,09,28,06,25,998.26
2013,09,28,06,26,998.17
2013,09,28,06,27,998.24
2013,09,28,06,28,998.17
2013,09,28,06,29,998.22
2013,09,28,06,30,998.25
2013,09,28,06,31,998.10
2013,09,28,06,32,998.14
2013,09,28,06,33,998.14
2013,09,28,06,34,998.07
2013,09,28,06,35,998.10
2013,09,28,06,36,998.07
2013,09,28,06,37,998.07
2013,09,28,06,38,998.04
2013,09,28,06,39,998.07
2013,09,28,06,40,998.04
2013,09,28,06,41,998.00
2013,09,28,06,42,997.97
2013,09,28,06,43,997.97
2013,09,28,06,44,997.94
2013,09,28,06,45,997.94
2013,09,28,06,46,997.94
2013,09,28,06,47,997.94
2013,09,28,06,48,997.93
2013,09,28,06,49,997.87
2013,09,28,06,50,997.93
2013,09,28,06,51,997.86
2013,09,28,06,52,997.80
2013,09,28,06,53,997.73
2013,09,28,06,54,997.73
2013,09,28,06,55,997.77
2013,09,28,06,56,997.73
2013,09,28,06,57,997.69
2013,09,28,06,58,997.60
2013,09,28,06,59,997.60
2013,09,28,07,00,997.60
2013,09,28,07,01,997.56
2013,09,28,07,02,997.52
2013,09,28,07,03,997.46
2013,09,28,07,04,997.43
2013,09,28,07,05,997.39
2013,09,28,07,06,997.33
2013,09,28,07,07,997.33
2013,09,28,07,08,997.32
2013,09,28,07,09,997.26
2013,09,28,07,10,997.29
2013,09,28,07,11,997.29
2013,09,28,07,12,997.26
2013,09,28,07,13,997.29
2013,09,28,07,14,997.36
2013,09,28,07,15,997.29
2013,09,28,07,16,997.33
2013,09,28,07,17,997.33
2013,09,28,07,18,997.39
2013,09,28,07,19,997.43
2013,09,28,07,20,997.39
2013,09,28,07,21,997.35
2013,09,28,07,22,997.29
2013,09,28,07,23,997.32
2013,09,28,07,24,997.19
2013,09,28,07,25,997.16
2013,09,28,07,26,997.18
2013,09,28,07,27,997.09
2013,09,28,07,28,997.05
2013,09,28,07,29,997.02
2013,09,28,07,30,997.02
2013,09,28,07,31,996.92
2013,09,28,07,32,996.89
2013,09,28,07,33,996.89
2013,09,28,07,34,996.92
2013,09,28,07,35,996.89
2013,09,28,07,36,996.89
2013,09,28,07,37,996.85
2013,09,28,07,38,996.89
2013,09,28,07,39,996.84
2013,09,28,07,40,996.76
2013,09,28,07,41,996.82
2013,09,28,07,42,996.75
2013,09,28,07,43,996.72
2013,09,28,07,44,996.72
2013,09,28,07,45,996.68
2013,09,28,07,46,996.71
2013,09,28,07,47,996.60
2013,09,28,07,48,996.55
2013,09,28,07,49,996.54
2013,09,28,07,50,996.45
2013,09,28,07,51,996.41
2013,09,28,07,52,996.38
2013,09,28,07,53,996.34
2013,09,28,07,54,996.34
2013,09,28,07,55,996.34
2013,09,28,07,56,996.31
2013,09,28,07,57,996.30
2013,09,28,07,58,996.18
2013,09,28,07,59,996.24
2013,09,28,08,00,996.21
2013,09,28,08,01,996.14
2013,09,28,08,02,996.10
2013,09,28,08,03,995.97
2013,09,28,08,04,995.89
2013,09,28,08,05,995.84
2013,09,28,08,06,995.80
2013,09,28,08,07,995.84
2013,09,28,08,08,995.80
2013,09,28,08,09,995.73
2013,09,28,08,10,995.69
2013,09,28,08,11,995.63
2013,09,28,08,12,995.63
2013,09,28,08,13,995.60
2013,09,28,08,14,995.63
2013,09,28,08,15,995.62
2013,09,28,08,16,995.53
2013,09,28,08,17,995.54
2013,09,28,08,18,995.60
2013,09,28,08,19,995.55
2013,09,28,08,20,995.50
2013,09,28,08,21,995.46
2013,09,28,08,22,995.46
2013,09,28,08,23,995.36
2013,09,28,08,24,995.35
2013,09,28,08,25,995.29
2013,09,28,08,26,995.26
2013,09,28,08,27,995.26
2013,09,28,08,28,995.29
2013,09,28,08,29,995.26
2013,09,28,08,30,995.26
2013,09,28,08,31,995.26
2013,09,28,08,32,995.16
2013,09,28,08,33,995.16
2013,09,28,08,34,995.16
2013,09,28,08,35,995.16
2013,09,28,08,36,995.16
2013,09,28,08,37,995.16
2013,09,28,08,38,995.12
2013,09,28,08,39,995.16
2013,09,28,08,40,995.16
2013,09,28,08,41,995.16
2013,09,28,08,42,995.12
2013,09,28,08,43,995.16
2013,09,28,08,44,995.16
2013,09,28,08,45,995.12
2013,09,28,08,46,995.16
2013,09,28,08,47,995.12
2013,09,28,08,48,995.12
2013,09,28,08,49,995.09
2013,09,28,08,50,995.09
2013,09,28,08,51,995.11
2013,09,28,08,52,995.06
2013,09,28,08,53,995.06
2013,09,28,08,54,995.02
2013,09,28,08,55,995.01
2013,09,28,08,56,994.96
2013,09,28,08,57,994.98
2013,09,28,08,58,994.92
2013,09,28,08,59,994.85
2013,09,28,09,00,994.82
2013,09,28,09,01,994.83
2013,09,28,09,02,994.91
2013,09,28,09,03,994.84
2013,09,28,09,04,994.80
2013,09,28,09,05,994.89
2013,09,28,09,06,994.79
2013,09,28,09,07,994.79
2013,09,28,09,08,994.79
2013,09,28,09,09,994.79
2013,09,28,09,10,994.82
2013,09,28,09,11,994.82
2013,09,28,09,12,994.81
2013,09,28,09,13,994.75
2013,09,28,09,14,994.75
2013,09,28,09,15,994.79
2013,09,28,09,16,994.75
2013,09,28,09,17,994.75
2013,09,28,09,18,994.68
2013,09,28,09,19,994.65
2013,09,28,09,20,994.62
2013,09,28,09,21,994.58
2013,09,28,09,22,994.52
2013,09,28,09,23,994.47
2013,09,28,09,24,994.39
2013,09,28,09,25,994.48
2013,09,28,09,26,994.45
2013,09,28,09,27,994.48
2013,09,28,09,28,994.55
2013,09,28,09,29,994.52
2013,09,28,09,30,994.48
2013,09,28,09,31,994.55
2013,09,28,09,32,994.52
2013,09,28,09,33,994.55
2013,09,28,09,34,994.48
2013,09,28,09,35,994.48
2013,09,28,09,36,994.45
2013,09,28,09,37,994.42
2013,09,28,09,38,994.54
2013,09,28,09,39,994.41
2013,09,28,09,40,994.38
2013,09,28,09,41,994.30
2013,09,28,09,42,994.20
2013,09,28,09,43,994.04
2013,09,28,09,44,993.94
2013,09,28,09,45,993.70
2013,09,28,09,46,993.69
2013,09,28,09,47,993.63
2013,09,28,09,48,993.60
2013,09,28,09,49,993.57
2013,09,28,09,50,993.60
2013,09,28,09,51,993.57
2013,09,28,09,52,993.53
2013,09,28,09,53,993.57
2013,09,28,09,54,993.53
2013,09,28,09,55,993.53
2013,09,28,09,56,993.53
2013,09,28,09,57,993.50
2013,09,28,09,58,993.50
2013,09,28,09,59,993.50
2013,09,28,10,00,993.47
2013,09,28,10,01,993.43
2013,09,28,10,02,993.50
2013,09,28,10,03,993.43
2013,09,28,10,04,993.40
2013,09,28,10,05,993.40
2013,09,28,10,06,993.40
2013,09,28,10,07,993.40
2013,09,28,10,08,993.43
2013,09,28,10,09,993.43
2013,09,28,10,10,993.47
2013,09,28,10,11,993.47
2013,09,28,10,12,993.50
2013,09,28,10,13,993.43
2013,09,28,10,14,993.40
2013,09,28,10,15,993.43
2013,09,28,10,16,993.43
2013,09,28,10,17,993.47
2013,09,28,10,18,993.40
2013,09,28,10,19,993.36
2013,09,28,10,20,993.36
2013,09,28,10,21,993.36
2013,09,28,10,22,993.33
2013,09,28,10,23,993.33
2013,09,28,10,24,993.35
2013,09,28,10,25,993.26
2013,09,28,10,26,993.23
2013,09,28,10,27,993.23
2013,09,28,10,28,993.16
2013,09,28,10,29,993.13
2013,09,28,10,30,993.09
2013,09,28,10,31,993.03
2013,09,28,10,32,993.05
2013,09,28,10,33,992.96
2013,09,28,10,34,992.96
2013,09,28,10,35,993.03
2013,09,28,10,36,992.96
2013,09,28,10,37,992.96
2013,09,28,10,38,992.96
2013,09,28,10,39,992.92
2013,09,28,10,40,992.88
2013,09,28,10,41,992.75
2013,09,28,10,42,992.72
2013,09,28,10,43,992.65
2013,09,28,10,44,992.58
2013,09,28,10,45,992.62
2013,09,28,10,46,992.54
2013,09,28,10,47,992.44
2013,09,28,10,48,992.31
2013,09,28,10,49,992.31
2013,09,28,10,50,992.25
2013,09,28,10,51,992.21
2013,09,28,10,52,992.28
2013,09,28,10,53,992.18
2013,09,28,10,54,992.11
2013,09,28,10,55,992.11
2013,09,28,10,56,992.08
2013,09,28,10,57,992.08
2013,09,28,10,58,992.04
2013,09,28,10,59,992.04
2013,09,28,11,00,992.01
2013,09,28,11,01,992.08
2013,09,28,11,02,992.04
2013,09,28,11,03,992.04
2013,09,28,11,04,992.04
2013,09,28,11,05,992.04
2013,09,28,11,06,992.04
2013,09,28,11,07,992.04
2013,09,28,11,08,992.01
2013,09,28,11,09,992.01
2013,09,28,11,10,991.98
2013,09,28,11,11,991.94
2013,09,28,11,12,991.94
2013,09,28,11,13,991.91
2013,09,28,11,14,991.91
2013,09,28,11,15,991.87
2013,09,28,11,16,991.84
2013,09,28,11,17,991.74
2013,09,28,11,18,991.81
2013,09,28,11,19,991.81
2013,09,28,11,20,991.74
2013,09,28,11,21,991.70
2013,09,28,11,22,991.70
2013,09,28,11,23,991.70
2013,09,28,11,24,991.67
2013,09,28,11,25,991.60
2013,09,28,11,26,991.63
2013,09,28,11,27,991.43
2013,09,28,11,28,991.40
2013,09,28,11,29,991.33
2013,09,28,11,30,991.33
2013,09,28,11,31,991.26
2013,09,28,11,32,991.23
2013,09,28,11,33,991.23
2013,09,28,11,34,991.20
2013,09,28,11,35,991.20
2013,09,28,11,36,991.20
2013,09,28,11,37,991.16
2013,09,28,11,38,991.13
2013,09,28,11,39,991.15
2013,09,28,11,40,991.03
2013,09,28,11,41,990.93
2013,09,28,11,42,990.93
2013,09,28,11,43,990.89
2013,09,28,11,44,990.76
2013,09,28,11,45,990.72
2013,09,28,11,46,990.69
2013,09,28,11,47,990.68
2013,09,28,11,48,990.55
2013,09,28,11,49,990.52
2013,09,28,11,50,990.55
2013,09,28,11,51,990.65
2013,09,28,11,52,990.55
2013,09,28,11,53,990.62
2013,09,28,11,54,990.65
2013,09,28,11,55,990.59
2013,09,28,11,56,990.65
2013,09,28,11,57,990.59
2013,09,28,11,58,990.62
2013,09,28,11,59,990.62
2013,09,28,12,00,990.62
2013,09,28,12,01,990.59
2013,09,28,12,02,990.59
2013,09,28,12,03,990.55
2013,09,28,12,04,990.62
2013,09,28,12,05,990.69
2013,09,28,12,06,990.76
2013,09,28,12,07,990.72
2013,09,28,12,08,990.65
2013,09,28,12,09,990.59
2013,09,28,12,10,990.63
2013,09,28,12,11,990.76
2013,09,28,12,12,990.81
2013,09,28,12,13,990.65
2013,09,28,12,14,990.59
2013,09,28,12,15,990.59
2013,09,28,12,16,990.55
2013,09,28,12,17,990.52
2013,09,28,12,18,990.55
2013,09,28,12,19,990.55
2013,09,28,12,20,990.53
2013,09,28,12,21,990.62
2013,09,28,12,22,990.69
2013,09,28,12,23,990.72
2013,09,28,12,24,990.72
2013,09,28,12,25,990.72
2013,09,28,12,26,990.72
2013,09,28,12,27,990.72
2013,09,28,12,28,990.68
2013,09,28,12,29,990.59
2013,09,28,12,30,990.52
2013,09,28,12,31,990.52
2013,09,28,12,32,990.52
2013,09,28,12,33,990.49
2013,09,28,12,34,990.42
2013,09,28,12,35,990.42
2013,09,28,12,36,990.42
2013,09,28,12,37,990.49
2013,09,28,12,38,990.38
2013,09,28,12,39,990.42
2013,09,28,12,40,990.38
2013,09,28,12,41,990.35
2013,09,28,12,42,990.35
2013,09,28,12,43,990.38
2013,09,28,12,44,990.45
2013,09,28,12,45,990.45
2013,09,28,12,46,990.38
2013,09,28,12,47,990.42
2013,09,28,12,48,990.45
2013,09,28,12,49,990.42
2013,09,28,12,50,990.42
2013,09,28,12,51,990.45
2013,09,28,12,52,990.38
2013,09,28,12,53,990.42
2013,09,28,12,54,990.45
2013,09,28,12,55,990.45
2013,09,28,12,56,990.45
2013,09,28,12,57,990.35
2013,09,28,12,58,990.37
2013,09,28,12,59,990.21
2013,09,28,13,00,990.21
2013,09,28,13,01,990.28
2013,09,28,13,02,990.25
2013,09,28,13,03,990.21
2013,09,28,13,04,990.11
2013,09,28,13,05,990.04
2013,09,28,13,06,990.04
2013,09,28,13,07,989.98
2013,09,28,13,08,989.91
2013,09,28,13,09,989.84
2013,09,28,13,10,989.81
2013,09,28,13,11,989.77
2013,09,28,13,12,989.74
2013,09,28,13,13,989.71
2013,09,28,13,14,989.71
2013,09,28,13,15,989.67
2013,09,28,13,16,989.60
2013,09,28,13,17,989.57
2013,09,28,13,18,989.47
2013,09,28,13,19,989.40
2013,09,28,13,20,989.27
2013,09,28,13,21,989.16
2013,09,28,13,22,989.12
2013,09,28,13,23,989.02
2013,09,28,13,24,988.86
2013,09,28,13,25,988.72
2013,09,28,13,26,988.66
2013,09,28,13,27,988.59
2013,09,28,13,28,988.45
2013,09,28,13,29,988.39
2013,09,28,13,30,988.25
2013,09,28,13,31,988.18
2013,09,28,13,32,988.15
2013,09,28,13,33,988.01
2013,09,28,13,34,988.05
2013,09,28,13,35,988.01
2013,09,28,13,36,987.95
2013,09,28,13,37,987.95
2013,09,28,13,38,987.81
2013,09,28,13,39,987.81
2013,09,28,13,40,987.81
2013,09,28,13,41,987.78
2013,09,28,13,42,987.67
2013,09,28,13,43,987.67
2013,09,28,13,44,987.61
2013,09,28,13,45,987.61
2013,09,28,13,46,987.53
2013,09,28,13,47,987.40
2013,09,28,13,48,987.44
2013,09,28,13,49,987.37
2013,09,28,13,50,987.37
2013,09,28,13,51,987.37
2013,09,28,13,52,987.34
2013,09,28,13,53,987.34
2013,09,28,13,54,987.20
2013,09,28,13,55,987.23
2013,09,28,13,56,987.20
2013,09,28,13,57,987.17
2013,09,28,13,58,987.16
2013,09,28,13,59,987.07
2013,09,28,14,00,987.23
2013,09,28,14,01,987.07
2013,09,28,14,02,987.20
2013,09,28,14,03,987.23
2013,09,28,14,04,987.30
2013,09,28,14,05,987.23
2013,09,28,14,06,987.27
2013,09,28,14,07,987.27
2013,09,28,14,08,987.19
2013,09,28,14,09,987.00
2013,09,28,14,10,986.99
2013,09,28,14,11,986.90
2013,09,28,14,12,986.90
2013,09,28,14,13,986.86
2013,09,28,14,14,986.86
2013,09,28,14,15,986.96
2013,09,28,14,16,987.00
2013,09,28,14,17,987.00
2013,09,28,14,18,986.96
2013,09,28,14,19,986.99
2013,09,28,14,20,986.90
2013,09,28,14,21,986.84
2013,09,28,14,22,986.96
2013,09,28,14,23,986.90
2013,09,28,14,24,986.90
2013,09,28,14,25,986.83
2013,09,28,14,26,986.83
2013,09,28,14,27,986.79
2013,09,28,14,28,986.83
2013,09,28,14,29,986.72
2013,09,28,14,30,986.59
2013,09,28,14,31,986.49
2013,09,28,14,32,986.42
2013,09,28,14,33,986.49
2013,09,28,14,34,986.57
2013,09,28,14,35,986.65
2013,09,28,14,36,986.49
2013,09,28,14,37,986.49
2013,09,28,14,38,986.49
2013,09,28,14,39,986.52
2013,09,28,14,40,986.52
2013,09,28,14,41,986.56
2013,09,28,14,42,986.52
2013,09,28,14,43,986.49
2013,09,28,14,44,986.49
2013,09,28,14,45,986.49
2013,09,28,14,46,986.46
2013,09,28,14,47,986.42
2013,09,28,14,48,986.32
2013,09,28,14,49,986.32
2013,09,28,14,50,986.29
2013,09,28,14,51,986.15
2013,09,28,14,52,986.05
2013,09,28,14,53,986.15
2013,09,28,14,54,986.22
2013,09,28,14,55,986.22
2013,09,28,14,56,986.29
2013,09,28,14,57,986.32
2013,09,28,14,58,986.39
2013,09,28,14,59,986.42
2013,09,28,15,00,986.49
2013,09,28,15,01,986.65
2013,09,28,15,02,986.73
2013,09,28,15,03,986.73
2013,09,28,15,04,986.79
2013,09,28,15,05,986.79
2013,09,28,15,06,986.79
2013,09,28,15,07,986.76
2013,09,28,15,08,986.79
2013,09,28,15,09,986.83
2013,09,28,15,10,986.79
2013,09,28,15,11,986.79
2013,09,28,15,12,986.79
2013,09,28,15,13,986.79
2013,09,28,15,14,986.79
2013,09,28,15,15,986.79
2013,09,28,15,16,986.76
2013,09,28,15,17,986.79
2013,09,28,15,18,986.83
2013,09,28,15,19,986.83
2013,09,28,15,20,986.83
2013,09,28,15,21,986.79
2013,09,28,15,22,986.79
2013,09,28,15,23,986.83
2013,09,28,15,24,986.90
2013,09,28,15,25,986.86
2013,09,28,15,26,986.90
2013,09,28,15,27,986.86
2013,09,28,15,28,986.86
2013,09,28,15,29,986.86
2013,09,28,15,30,986.79
2013,09,28,15,31,986.83
2013,09,28,15,32,986.83
2013,09,28,15,33,986.79
2013,09,28,15,34,986.79
2013,09,28,15,35,986.79
2013,09,28,15,36,986.83
2013,09,28,15,37,986.86
2013,09,28,15,38,986.79
2013,09,28,15,39,986.86
2013,09,28,15,40,986.93
2013,09,28,15,41,987.10
2013,09,28,15,42,987.07
2013,09,28,15,43,987.17
2013,09,28,15,44,987.27
2013,09,28,15,45,987.30
2013,09,28,15,46,987.27
2013,09,28,15,47,987.37
2013,09,28,15,48,987.40
2013,09,28,15,49,987.44
2013,09,28,15,50,987.44
2013,09,28,15,51,987.47
2013,09,28,15,52,987.54
2013,09,28,15,53,987.44
2013,09,28,15,54,987.47
2013,09,28,15,55,987.52
2013,09,28,15,56,987.61
2013,09,28,15,57,987.61
2013,09,28,15,58,987.61
2013,09,28,15,59,987.58
2013,09,28,16,00,987.71
2013,09,28,16,01,987.84
2013,09,28,16,02,987.84
2013,09,28,16,03,987.95
2013,09,28,16,04,987.91
2013,09,28,16,05,987.95
2013,09,28,16,06,987.98
2013,09,28,16,07,988.05
2013,09,28,16,08,988.08
2013,09,28,16,09,988.05
2013,09,28,16,10,988.11
2013,09,28,16,11,988.15
2013,09,28,16,12,988.18
2013,09,28,16,13,988.15
2013,09,28,16,14,988.18
2013,09,28,16,15,988.22
2013,09,28,16,16,988.35
2013,09,28,16,17,988.42
2013,09,28,16,18,988.39
2013,09,28,16,19,988.42
2013,09,28,16,20,988.39
2013,09,28,16,21,988.40
2013,09,28,16,22,988.49
2013,09,28,16,23,988.42
2013,09,28,16,24,988.35